User: anonymous   Login
Location: Unspecified
(0.0000°N, 0.0000°E)
Time: 11:52:24
(UTC+00:00)
Language:

NIUSAT - Orbit

View from above orbital plane
View from above orbital plane
View from above satellite
View from above satellite

Ground track
Ground track

The orbit data is extracted from the following two-line orbital elements,

1 42766U 17036B   18168.92349496 +.00000773 +00000-0 +38527-4 0  9998
2 42766 097.4008 228.0351 0017545 064.7116 295.5935 15.20395724054648
Epoch (UTC): 17 June 2018 22:09:49
Eccentricity: 0.0017545
inclination: 97.4008°
perigee height: 492 km
apogee height: 517 km
right ascension of ascending node: 228.0351°
argument of perigee: 64.7116°
revolutions per day: 15.20395724
mean anomaly at epoch: 295.5935°
orbit number at epoch: 5464

The dashed part of the orbit path shows where the satellite is in the earth's shadow,  

DLR